Date String (YYYY-MM-DD hh:mm:ss) UTC,Instrument flags,absolute air pressure of the measurement (hPa),sample flow rate (lpm),inlet stack bypass flow (lpm),air temperature of the measurement (°C),ambient temperature measured by the external sensor (°C),aerosol sample conditioner tube jacket temperature (°C),OPC LED temperature (°C),internal box temperature (°C),relative humidity of the measurement (%),span deviation,mass concentration of particles derived from Lorenz-Mie calculation of OPC scattering (μg/m³),mass concentration of particles derived from Lorenz-Mie calculation of OPC scattering (μg/m³),mass concentration of particles derived from Lorenz-Mie calculation of OPC scattering (μg/m³)
DateTimeUTC,F1_M11,P_M11,Q1_M11,Q2_M11,T1_M11,T2_M11,T3_M11,T4_M11,T5_M11,U1_M11,ZSPAN_M11,X0_M11,X2_M11,X1_M11
2023-10-30 23:00:00,SystemResetWarning,0834.9,5.00,000.00,025.4,024.2,000.0,033.7,026.7,10.8,0000.6,0010.70,0006.47,0006.18
2023-10-30 23:01:00,SystemResetWarning,0834.8,5.00,000.00,025.4,024.2,000.0,033.7,026.7,10.7,0000.7,0010.49,0006.49,0006.17
2023-10-30 23:02:00,SystemResetWarning,0834.9,5.00,000.00,025.4,024.2,000.0,033.7,026.8,10.5,0001.1,0010.12,0006.47,0006.17
2023-10-30 23:03:00,SystemResetWarning,0834.9,5.00,000.00,025.4,024.2,000.0,033.7,026.7,10.6,0001.1,0010.09,0006.45,0006.16
2023-10-30 23:04:00,SystemResetWarning,0834.8,5.00,000.00,025.4,024.2,000.0,033.7,026.8,11.1,0000.3,0010.21,0006.47,0006.17
2023-10-30 23:05:00,SystemResetWarning,0834.8,5.00,000.00,025.4,024.2,000.0,033.7,026.8,11.3,0000.5,0010.21,0006.48,0006.18
2023-10-30 23:06:00,SystemResetWarning,0834.7,5.01,000.00,025.3,024.2,000.0,033.7,026.7,11.3,0000.3,0010.32,0006.51,0006.18
2023-10-30 23:07:00,SystemResetWarning,0834.8,5.01,000.00,025.3,024.2,000.0,033.7,026.7,11.2,-000.3,0010.13,0006.52,0006.18
2023-10-30 23:08:00,SystemResetWarning,0834.9,5.00,000.00,025.3,024.2,000.0,033.7,026.7,10.2,-000.6,0009.70,0006.52,0006.19
2023-10-30 23:09:00,SystemResetWarning,0834.8,5.00,000.00,025.3,024.2,000.0,033.7,026.7,9.3,-000.3,0009.79,0006.57,0006.21
2023-10-30 23:10:00,SystemResetWarning,0834.8,4.98,000.00,025.3,024.2,000.0,033.7,026.7,8.9,-000.4,0009.80,0006.59,0006.23
2023-10-30 23:11:00,SystemResetWarning,0834.9,4.99,000.00,025.3,024.2,000.0,033.7,026.7,9.1,0000.6,0009.46,0006.61,0006.23
2023-10-30 23:12:00,SystemResetWarning,0835.4,5.00,000.00,025.4,024.2,000.0,033.7,026.7,9.8,0000.5,0009.33,0006.60,0006.24
2023-10-30 23:13:00,SystemResetWarning,0835.3,5.01,000.00,025.4,024.2,000.0,033.7,026.8,10.8,0001.1,0009.30,0006.59,0006.25
2023-10-30 23:14:00,SystemResetWarning,0835.4,5.01,000.00,025.3,024.2,000.0,033.7,026.7,11.2,0000.9,0009.36,0006.61,0006.25
2023-10-30 23:15:00,SystemResetWarning,0835.3,5.00,000.00,025.3,024.2,000.0,033.7,026.7,11.4,0001.2,0010.06,0006.58,0006.24
2023-10-30 23:16:00,SystemResetWarning,0835.1,4.99,000.00,025.3,024.2,000.0,033.7,026.7,11.5,0001.5,0010.38,0006.59,0006.24
2023-10-30 23:17:00,SystemResetWarning,0834.9,5.00,000.00,025.3,024.1,000.0,033.7,026.7,11.2,0000.7,0010.23,0006.55,0006.23
2023-10-30 23:18:00,SystemResetWarning,0834.9,5.02,000.00,025.3,024.1,000.0,033.7,026.7,10.5,0001.0,0010.19,0006.54,0006.22
2023-10-30 23:19:00,SystemResetWarning,0835.0,4.99,000.00,025.3,024.1,000.0,033.7,026.7,10.0,0001.8,0010.35,0006.56,0006.22
2023-10-30 23:20:00,SystemResetWarning,0834.9,4.99,000.00,025.3,024.1,000.0,033.7,026.7,9.5,0001.9,0010.32,0006.52,0006.21
2023-10-30 23:21:00,SystemResetWarning,0834.9,5.01,000.00,025.3,024.1,000.0,033.7,026.7,10.2,0001.4,0010.56,0006.50,0006.20
2023-10-30 23:22:00,SystemResetWarning,0835.0,5.00,000.00,025.3,024.1,000.0,033.7,026.7,10.4,0000.1,0012.21,0006.50,0006.20
2023-10-30 23:23:00,SystemResetWarning,0835.0,4.99,000.00,025.3,024.1,000.0,033.7,026.7,10.5,-000.1,0012.18,0006.50,0006.21
2023-10-30 23:24:00,SystemResetWarning,0835.0,5.00,000.00,025.3,024.2,000.0,033.7,026.7,10.7,-000.5,0012.15,0006.49,0006.21
2023-10-30 23:25:00,SystemResetWarning,0835.0,4.99,000.00,025.3,024.2,000.0,033.7,026.7,10.1,0000.1,0012.11,0006.48,0006.20
2023-10-30 23:26:00,SystemResetWarning,0835.0,4.99,000.00,025.3,024.2,000.0,033.7,026.7,9.4,-000.1,0011.62,0006.48,0006.18
2023-10-30 23:27:00,SystemResetWarning,0835.1,5.00,000.00,025.3,024.2,000.0,033.7,026.7,9.4,-000.2,0010.99,0006.45,0006.16
2023-10-30 23:28:00,SystemResetWarning,0835.2,5.00,000.00,025.3,024.2,000.0,033.7,026.7,9.2,-000.9,0011.34,0006.45,0006.15
2023-10-30 23:29:00,SystemResetWarning,0835.1,5.00,000.00,025.3,024.2,000.0,033.7,026.8,8.6,-000.7,0011.31,0006.43,0006.14
2023-10-30 23:30:00,SystemResetWarning,0835.2,5.01,000.00,025.3,024.2,000.0,033.7,026.8,9.4,-001.2,0011.17,0006.40,0006.13
2023-10-30 23:31:00,SystemResetWarning,0835.2,5.00,000.00,025.4,024.2,000.0,033.7,026.8,10.0,-001.5,0010.98,0006.38,0006.12
2023-10-30 23:32:00,SystemResetWarning,0835.2,5.01,000.00,025.3,024.3,000.0,033.7,026.8,10.2,-002.0,0010.96,0006.37,0006.11
2023-10-30 23:33:00,SystemResetWarning,0835.2,5.00,000.00,025.4,024.3,000.0,033.7,026.8,10.2,-002.0,0009.54,0006.35,0006.09
2023-10-30 23:34:00,SystemResetWarning,0835.2,4.99,000.00,025.4,024.3,000.0,033.7,026.8,9.9,-002.1,0009.54,0006.35,0006.08
2023-10-30 23:35:00,SystemResetWarning,0835.2,4.99,000.00,025.4,024.3,000.0,033.7,026.8,10.3,-002.0,0009.57,0006.35,0006.06
2023-10-30 23:36:00,SystemResetWarning,0835.2,5.01,000.00,025.4,024.3,000.0,033.7,026.7,10.0,-002.3,0009.64,0006.35,0006.06
2023-10-30 23:37:00,SystemResetWarning,0835.1,5.01,000.00,025.4,024.3,000.0,033.7,026.8,9.5,-002.3,0009.84,0006.35,0006.08
2023-10-30 23:38:00,SystemResetWarning,0835.1,5.01,000.00,025.4,024.3,000.0,033.7,026.8,9.0,-002.3,0009.78,0006.35,0006.09
2023-10-30 23:39:00,SystemResetWarning,0835.2,5.00,000.00,025.4,024.3,000.0,033.7,026.8,9.0,-001.9,0009.48,0006.33,0006.08
2023-10-30 23:40:00,SystemResetWarning,0835.2,5.00,000.00,025.4,024.3,000.0,033.7,026.8,9.3,-002.1,0009.50,0006.35,0006.08
2023-10-30 23:41:00,SystemResetWarning,0835.2,4.99,000.00,025.4,024.3,000.0,033.7,026.8,9.9,-002.1,0009.50,0006.35,0006.08
2023-10-30 23:42:00,SystemResetWarning,0835.2,5.00,000.00,025.4,024.3,000.0,033.7,026.8,10.5,-002.3,0009.54,0006.36,0006.08
2023-10-30 23:43:00,SystemResetWarning,0835.2,5.00,000.00,025.4,024.3,000.0,033.7,026.7,10.8,-002.1,0009.53,0006.37,0006.08
2023-10-30 23:44:00,SystemResetWarning,0835.2,5.00,000.00,025.4,024.3,000.0,033.7,026.8,10.1,-001.6,0009.48,0006.42,0006.11
2023-10-30 23:45:00,SystemResetWarning,0835.3,5.00,000.00,025.4,024.2,000.0,033.7,026.8,9.4,-001.0,0009.23,0006.45,0006.12
2023-10-30 23:46:00,SystemResetWarning,0835.2,5.00,000.00,025.4,024.2,000.0,033.7,026.8,9.2,-001.3,0009.43,0006.48,0006.14
2023-10-30 23:47:00,SystemResetWarning,0835.2,5.01,000.00,025.4,024.2,000.0,033.7,026.7,9.1,-001.4,0009.43,0006.51,0006.17
2023-10-30 23:48:00,SystemResetWarning,0835.2,5.00,000.00,025.4,024.3,000.0,033.7,026.7,9.2,-001.0,0009.33,0006.54,0006.18
2023-10-30 23:49:00,SystemResetWarning,0835.2,5.00,000.00,025.4,024.3,000.0,033.7,026.8,9.2,-000.1,0009.51,0006.56,0006.17
2023-10-30 23:50:00,SystemResetWarning,0835.3,5.00,000.00,025.4,024.3,000.0,033.7,026.8,9.3,0000.3,0009.58,0006.57,0006.18
2023-10-30 23:51:00,SystemResetWarning,0835.3,5.00,000.00,025.4,024.3,000.0,033.7,026.8,10.2,0001.1,0009.85,0006.57,0006.18
2023-10-30 23:52:00,SystemResetWarning,0835.3,4.99,000.00,025.4,024.2,000.0,033.7,026.8,11.4,0001.6,0010.19,0006.57,0006.16
2023-10-30 23:53:00,SystemResetWarning,0835.3,5.00,000.00,025.4,024.2,000.0,033.7,026.7,11.3,0002.1,0010.30,0006.54,0006.15
2023-10-30 23:54:00,SystemResetWarning,0835.3,5.00,000.00,025.4,024.2,000.0,033.7,026.7,10.3,0002.5,0010.43,0006.51,0006.15
2023-10-30 23:55:00,SystemResetWarning,0835.2,5.01,000.00,025.3,024.2,000.0,033.7,026.6,9.6,0002.4,0010.68,0006.46,0006.12
2023-10-30 23:56:00,SystemResetWarning,0835.2,5.00,000.00,025.3,024.2,000.0,033.7,026.6,9.3,0002.5,0011.00,0006.43,0006.09
2023-10-30 23:57:00,SystemResetWarning,0835.3,5.00,000.00,025.3,024.2,000.0,033.7,026.7,9.3,0002.8,0010.81,0006.37,0006.06
2023-10-30 23:58:00,SystemResetWarning,0835.3,4.98,000.00,025.3,024.2,000.0,033.7,026.7,9.2,0002.2,0010.74,0006.33,0006.02
2023-10-30 23:59:00,SystemResetWarning,0835.3,5.00,000.00,025.3,024.2,000.0,033.7,026.7,10.0,0002.4,0010.59,0006.28,0005.98
